METEOR 2-6 DEB, 45502

Orbit data source: Space-Track

METEOR 2-6 DEB, 45502 is space debris in LEO originally from a launch on Tue, 09 Sep 1980 UTC launched from the Plesetsk Missile And Space Complex (PKMTR). Debris objects in space refer to the collection of defunct objects orbiting the Earth. Examples of debris include non-operational satellites, rocket bodies, and fragments generated from explosions, collisions, or faulty payload assembly.

Loading next visibility...
Identifier
45502, 1980-073W
Orbit
LEO
Country
Flag of CISCIS
Related business
Manufacturer
Unknown
Mission
Spacecraft
Bus & Motor
Unknown
Mass
Unknown
Launch date (UTC)
1980-09-09 (45 years ago)
Launch vehicle
Unknown
Launch site
Plesetsk Missile And Space Complex (PKMTR)
Object type
Payload
Rocket body
Debris
Shape & HBR
Unknown shape, 0.1 m
Radar Cross Section
Small (<0.1 m²)

Expand to show TLE details & history
Last TLE update: 9 hours ago

TLE from 9 hours ago
0 METEOR 2-6 DEB
1 45502U 80073W   25300.63602933  .00006927  00000-0  24000-2 0  9998
2 45502  81.2195 268.6575 0036320 279.1943  80.5134 14.35205170567289
Epoch: 2025-10-27T15:15Z
TLE epoch observation values (Epoch: 2025-10-27T15:15:52.934Z)
Latitude
0.00001°
Longitude
3.45191°
Altitude
773.127 km
Speed
7.47 km/s
True Right ascension
17h 54m 37s
True Declination
0° 00' 00"
Sunlit
Object was in daylight at epoch
Visualization orbit readout
Latitude
Unknown
Longitude
Unknown
Altitude
Unknown
Speed
Unknown
Apparent Right ascension
Unknown
Apparent Declination
Unknown
Sunlit
N/A
Visualization observer readout
Local Sidereal Time
19:59:14
Azimuth
Unknown
Elevation
Unknown
Doppler factor
Unknown
Orbital elements
Apogee altitude
797.494 km
Perigee altitude
745.559 km
Semi-major axis
7,149.663 km
Eccentricity
0.00363
Inclination
81.2195°
RAAN
268.6575°
Arg. of periapsis
279.1943°
True anomaly
80.92421°
Mean anomaly
80.5134°
Eccentric anomaly
80.71877°
Mean motion
3.59017 °/min
Orbital period
100.27 mins
BSTAR
0.0024
Loading maneuver chart data...
Computing Atmospheric mass density...
Loading historical data...
Loading historical data...
Loading historical data...
Loading historical data...
Loading historical data...
Loading historical data...
Loading historical data...

Documentation

Showing up to 5 results
|